Girona, Spain

12:18 AM CET on February 18, 2018 (GMT +0100)
Girona

Weather History for LEGE - February, 2018

Change the Weather History Date:

Wednesday, February 14, 2018

  Actual Average Record
Temperature  
Mean Temperature 40 °F -  
Max Temperature 52 °F 60 °F 74 °F (2014)
Min Temperature 28 °F 37 °F 23 °F (1999)
Degree Days  
Heating Degree Days 25    
Moisture  
Dew Point 35 °F    
Average Humidity 82    
Maximum Humidity 100    
Minimum Humidity 48    
Precipitation  
Precipitation 0.00 in 0.07 in - ()
Sea Level Pressure  
Sea Level Pressure 30.01 in    
Wind  
Wind Speed 2 mph ()    
Max Wind Speed 15 mph    
Max Gust Speed -    
Visibility 7.4 miles    
Events      
Averages and records for this station are not official NWS values.
T = Trace of Precipitation, MM = Missing Value Source: Averaged Metar Reports

Daily Weather History Graph

Daily Weather History Graph

Search for Another Location

Airport or City:

Trip Planner

Search our weather history database for the weather conditions in past years. The results will help you decide how hot, cold, wet, or windy it might be!

Date:

Astronomy

Feb. 14, 2018 Rise Set
Actual Time 7:46 AM CET 6:20 PM CET
Civil Twilight 7:17 AM CET 6:49 PM CET
Nautical Twilight 6:44 AM CET 7:21 PM CET
Astronomical Twilight 6:12 AM CET 7:54 PM CET
Moon 6:57 AM CET (2/14) 5:06 PM CET (2/14)
Length of Visible Light 11h 31m
Length of Day
10h 34m
Waning Crescent, 2% of the Moon is Illuminated
Feb 14
Waning Crescent
Feb 15
New
Feb 23
First Quarter
Mar 2
Full
Mar 9
Last Quarter

Hourly Weather History & Observations

Time (CET) Temp. Windchill Dew Point Humidity Pressure Visibility Wind Dir Wind Speed Gust Speed Precip Events Conditions
12:00 AM 33.8 °F - 30.2 °F 87% 29.95 in - Calm Calm - N/A   Clear
12:30 AM 30.2 °F - 28.4 °F 93% 29.95 in - Calm Calm - N/A   Clear
1:00 AM 30 °F - 28 °F 86% 29.96 in 16 mi NE 2.3 mph - -   Clear
1:00 AM 30.2 °F - 28.4 °F 93% 29.95 in - NE 2.3 mph - N/A   Clear
1:30 AM 32.0 °F 28.7 °F 30.2 °F 93% 29.95 in - NNE 3.5 mph - N/A   Clear
2:00 AM 32 °F - 29 °F 83% 29.97 in - Calm Calm - -  
2:00 AM 32.0 °F - 30.2 °F 93% 29.95 in - Calm Calm - N/A   Clear
2:30 AM 33.8 °F - 30.2 °F 87% 29.95 in - NNW 2.3 mph - N/A   Clear
3:00 AM 31 °F - 28 °F 84% 29.98 in - NE 1.2 mph - -  
3:00 AM 32.0 °F - 28.4 °F 87% 29.95 in - Calm Calm - N/A   Clear
3:30 AM 30.2 °F - 28.4 °F 93% 29.95 in - Calm Calm - N/A   Clear
4:00 AM 29 °F - 27 °F 88% 29.97 in 16 mi Calm Calm - -   Clear
4:00 AM 30.2 °F - 28.4 °F 93% 29.95 in - Calm Calm - N/A   Clear
4:30 AM 30.2 °F - 28.4 °F 93% 29.95 in - Calm Calm - N/A   Clear
5:00 AM 30 °F - 28 °F 88% 29.98 in - Calm Calm - -  
5:00 AM 30.2 °F - 30.2 °F 100% 29.95 in - Calm Calm - N/A   Clear
5:30 AM 30.2 °F - 30.2 °F 100% 29.98 in - Calm Calm - N/A   Clear
6:00 AM 30 °F - 28 °F 90% 29.99 in - Calm Calm - -  
6:00 AM 30.2 °F - 30.2 °F 100% 29.98 in - Calm Calm - N/A   Clear
6:30 AM 30.2 °F - 30.2 °F 100% 29.98 in - Calm Calm - N/A   Clear
7:00 AM 31 °F - 29 °F 90% 30.00 in 9 mi Calm Calm - -   Partly Cloudy
7:00 AM 32.0 °F - 30.2 °F 93% 29.98 in 6.2 mi Calm Calm - N/A   Mostly Cloudy
7:30 AM 30.2 °F - 30.2 °F 100% 30.01 in 6.2 mi Variable 1.2 mph - N/A   Mostly Cloudy
8:00 AM 31 °F - 29 °F 92% 30.03 in - Calm Calm - -  
8:00 AM 32.0 °F - 30.2 °F 93% 30.01 in 6.2 mi Calm Calm - N/A   Mostly Cloudy
8:30 AM 32.0 °F - 32.0 °F 100% 30.04 in 6.2 mi Calm Calm - N/A   Mostly Cloudy
9:00 AM 32 °F - 30 °F 90% 30.05 in - West 2.3 mph - -  
9:00 AM 32.0 °F - 32.0 °F 100% 30.04 in 6.2 mi Calm Calm - N/A   Mostly Cloudy
9:30 AM 33.8 °F - 33.8 °F 100% 30.04 in 6.2 mi Variable 1.2 mph - N/A   Scattered Clouds
10:00 AM 38 °F - 33 °F 77% 30.05 in 25 mi Calm Calm - -   Partly Cloudy
10:00 AM 37.4 °F - 33.8 °F 87% 30.04 in 6.2 mi Calm Calm - N/A   Scattered Clouds
10:30 AM 39.2 °F - 35.6 °F 87% 30.04 in 6.2 mi Calm Calm - N/A   Partly Cloudy
11:00 AM 42 °F - 35 °F 69% 30.06 in - Calm Calm - -  
11:00 AM 41.0 °F - 35.6 °F 81% 30.06 in 6.2 mi Calm Calm - N/A   Partly Cloudy
11:30 AM 44.6 °F - 35.6 °F 71% 30.06 in 6.2 mi Variable 1.2 mph - N/A   Partly Cloudy
12:00 PM 48 °F - 35 °F 50% 30.06 in - SE 2.3 mph - -  
12:00 PM 46.4 °F - 33.8 °F 62% 30.06 in 6.2 mi Variable 1.2 mph - N/A   Partly Cloudy
12:30 PM 48.2 °F - 35.6 °F 62% 30.06 in 6.2 mi SSE 3.5 mph - N/A   Scattered Clouds
1:00 PM 51 °F - 37 °F 48% 30.03 in 25 mi South 5.8 mph - -   Scattered Clouds
1:00 PM 50.0 °F - 35.6 °F 58% 30.04 in 6.2 mi South 4.6 mph - N/A   Scattered Clouds
1:30 PM 51.8 °F - 37.4 °F 58% 30.04 in 6.2 mi South 9.2 mph - N/A   Scattered Clouds
2:00 PM 52 °F - 39 °F 50% 30.01 in - South 12.7 mph - -  
2:00 PM 51.8 °F - 39.2 °F 62% 30.01 in 6.2 mi SSW 12.7 mph - N/A   Partly Cloudy
2:30 PM 50.0 °F - 39.2 °F 66% 30.01 in 6.2 mi South 11.5 mph - N/A   Partly Cloudy
3:00 PM 51 °F - 40 °F 55% 30.01 in - South 12.7 mph - -  
3:00 PM 50.0 °F - 39.2 °F 66% 30.01 in 6.2 mi South 12.7 mph - N/A   Partly Cloudy
3:30 PM 50.0 °F - 39.2 °F 66% 30.01 in 6.2 mi South 15.0 mph - N/A   Partly Cloudy
4:00 PM 51 °F - 40 °F 57% 30.01 in 25 mi South 12.7 mph - -   Scattered Clouds
4:00 PM 50.0 °F - 41.0 °F 71% 30.01 in 6.2 mi South 12.7 mph - N/A   Partly Cloudy
4:30 PM 50.0 °F - 41.0 °F 71% 30.01 in 6.2 mi South 11.5 mph - N/A   Partly Cloudy
5:00 PM 51 °F - 41 °F 59% 30.01 in - South 9.2 mph - -  
5:00 PM 50.0 °F - 41.0 °F 71% 30.01 in 6.2 mi South 8.1 mph - N/A   Partly Cloudy
5:30 PM 48.2 °F - 41.0 °F 76% 30.01 in 6.2 mi South 8.1 mph - N/A   Partly Cloudy
6:00 PM 48 °F - 40 °F 67% 30.02 in - South 5.8 mph - -  
6:00 PM 48.2 °F - 41.0 °F 76% 30.01 in 6.2 mi South 5.8 mph - N/A   Partly Cloudy
6:30 PM 46.4 °F 45.2 °F 41.0 °F 81% 30.04 in 6.2 mi South 3.5 mph - N/A   Partly Cloudy
7:00 PM 45 °F - 40 °F 78% 30.03 in 16 mi South 2.3 mph - -   Scattered Clouds
7:00 PM 44.6 °F 43.1 °F 41.0 °F 87% 30.04 in 6.2 mi South 3.5 mph - N/A   Partly Cloudy
7:30 PM 44.6 °F - 39.2 °F 81% 30.04 in 6.2 mi Calm Calm - N/A   Partly Cloudy
8:00 PM 45 °F - 40 °F 77% 30.04 in - Calm Calm - -  
8:00 PM 44.6 °F - 41.0 °F 87% 30.04 in 6.2 mi Calm Calm - N/A   Partly Cloudy
8:30 PM 44.6 °F - 41.0 °F 87% 30.04 in 6.2 mi Calm Calm - N/A   Partly Cloudy
9:00 PM 44 °F - 40 °F 83% 30.06 in - SW 1.2 mph - -  
9:00 PM 44.6 °F - 41.0 °F 87% 30.04 in 6.2 mi SW 1.2 mph - N/A   Partly Cloudy
9:30 PM 42.8 °F - 41.0 °F 93% 30.06 in 6.2 mi Calm Calm - N/A   Partly Cloudy
10:00 PM 43 °F - 40 °F 83% 30.05 in 19 mi Calm Calm - -   Scattered Clouds
10:00 PM 42.8 °F - 41.0 °F 93% 30.04 in 6.2 mi Calm Calm - N/A   Partly Cloudy
10:30 PM 41.0 °F - 39.2 °F 93% 30.04 in 6.2 mi Calm Calm - N/A   Partly Cloudy
11:00 PM 41 °F - 39 °F 88% 30.06 in - Calm Calm - -  
11:00 PM 41.0 °F - 41.0 °F 100% 30.04 in 6.2 mi Calm Calm - N/A   Partly Cloudy
11:30 PM 41.0 °F - 39.2 °F 93% 30.06 in 6.2 mi Calm Calm - N/A   Partly Cloudy